Hourly Data Report for May 19, 2012

All times are specified in Local Standard Time (LST). Add 1 hour to adjust for Daylight Saving Time where and when it is observed.

PENTICTON A
BRITISH COLUMBIA

49°27'45.000" N
119°36'08.000" W
344.40 m
1126146
71889
YYF

Related Data

No related data is available for this station

Download Data

Hourly Data (May 2012)
Hourly Data Report for May 19, 2012
Temp Definition
°C
Dew Point Temp Definition
°C
Rel Hum Definition
%
Wind Dir Definition
10's deg

Wind Spd Definition
km/h
Visibility Definition
km
Stn Press Definition
kPa
Hmdx Definition


Wind Chill Definition


Weather Definition


TIME
00:00 Legend Double Dagger 7.4 -1.5 53 35 12 10.0 97.70     LegendNANA
01:00 Legend Double Dagger 6.5 -1.4 57 33 9 10.0 97.70     Mostly Cloudy
02:00 Legend Double Dagger 7.0 -2.2 52   0 10.0 97.70     LegendNANA
03:00 Legend Double Dagger 6.3 -2.1 55   0 10.0 97.72     LegendNANA
04:00 Legend Double Dagger 4.8 -2.1 61 34 5 10.0 97.75     Mostly Cloudy
05:00 Legend Double Dagger 5.3 -1.6 61 0 11 10.0 97.80     LegendNANA
06:00 Legend Double Dagger 7.8 -0.2 57 34 10 10.0 97.84     LegendNANA
07:00 Legend Double Dagger 10.7 1.6 53 1 13 10.0 97.85     Mainly Clear
08:00 Legend Double Dagger 10.8 1.4 52 34 12 10.0 97.82     LegendNANA
09:00 Legend Double Dagger 13.4 0.8 42 35 11 10.0 97.79     LegendNANA
10:00 Legend Double Dagger 14.6 0.2 37 0 13 10.0 97.75     Mainly Clear
11:00 Legend Double Dagger 16.1 1.1 36 36 18 10.0 97.71     LegendNANA
12:00 Legend Double Dagger 18.0 0.3 30 34 11 10.0 97.62     LegendNANA
13:00 Legend Double Dagger 20.3 -1.4 23 16 8 10.0 97.58     Mainly Clear
14:00 Legend Double Dagger 21.1 -0.7 23 17 10 10.0 97.52     LegendNANA
15:00 Legend Double Dagger 21.5 0.3 24 15 8 10.0 97.50     LegendNANA
16:00 Legend Double Dagger 20.0 1.6 29 16 19 10.0 97.51     Mostly Cloudy
17:00 Legend Double Dagger 19.9 1.5 29 18 12 10.0 97.49     LegendNANA
18:00 Legend Double Dagger 18.9 2.0 32 17 13 10.0 97.48     LegendNANA
19:00 Legend Double Dagger 18.0 1.6 33 17 11 10.0 97.47     Mostly Cloudy
20:00 Legend Double Dagger 16.8 2.9 39   0 10.0 97.48     LegendNANA
21:00 Legend Double Dagger 16.1 2.6 40 13 8 10.0 97.51     LegendNANA
22:00 Legend Double Dagger 11.9 2.9 54 17 4 10.0 97.53     Mostly Cloudy
23:00 Legend Double Dagger 11.7 3.3 56   0 10.0 97.54     LegendNANA

Notes on Data Quality.

Legend

  • E = Estimated
  • M = Missing
  • NA = Not Available
  • ‡ = Partner data that is not subject to review by the National Climate Archives
Date modified: